SCOUT A DEB, 2580

Orbit data source: Space-Track

SCOUT A DEB, 2580 is space debris in LEO originally from a launch on Thu, 18 Aug 1966 UTC launched from the Air Force Western Test Range (AFWTR). Debris objects in space refer to the collection of defunct objects orbiting the Earth. Examples of debris include non-operational satellites, rocket bodies, and fragments generated from explosions, collisions, or faulty payload assembly.

Loading next visibility...
Identifier
2580, 1966-076C
Orbit
LEO
Country
Flag of USUS
Related business
Manufacturer
Unknown
Mission
Spacecraft
Bus & Motor
Unknown
Mass
Unknown
Launch date (UTC)
1966-08-18 (59 years ago)
Launch vehicle
Unknown
Launch site
Air Force Western Test Range (AFWTR)
Object type
Payload
Rocket body
Debris
Shape & HBR
Unknown shape, 0.1 m
Radar Cross Section
Small (<0.1 m²)

Expand to show TLE details & history
Last TLE update: 10 hours ago

TLE from 10 hours ago
0 SCOUT A DEB
1 02580U 66076C   26035.21067015  .00000318  00000-0  29085-3 0  9997
2 02580  89.1397 298.7698 0095296   8.9998 113.6871 13.78684074973584
Epoch: 2026-02-04T05:03Z
TLE epoch observation values (Epoch: 2026-02-04T05:03:21.900Z)
Latitude
56.40236°
Longitude
-92.74044°
Altitude
1,006.754 km
Speed
7.339 km/s
True Right ascension
07h 49m 55s
True Declination
56° 14' 56"
Sunlit
Object was in full shadow at epoch
Visualization orbit readout
Latitude
Unknown
Longitude
Unknown
Altitude
Unknown
Speed
Unknown
Apparent Right ascension
Unknown
Apparent Declination
Unknown
Sunlit
N/A
Visualization observer readout
Local Sidereal Time
17:31:18
Azimuth
Unknown
Elevation
Unknown
Doppler factor
Unknown
Orbital elements
Apogee altitude
1,035.55 km
Perigee altitude
895.585 km
Semi-major axis
7,343.705 km
Eccentricity
0.00953
Inclination
89.1397°
RAAN
298.7698°
Arg. of periapsis
8.9998°
True anomaly
114.6823°
Mean anomaly
113.6871°
Eccentric anomaly
114.18518°
Mean motion
3.44882 °/min
Orbital period
104.38 mins
BSTAR
0.00029085
Loading maneuver chart data...
Computing Atmospheric mass density...
Loading historical data...
Loading historical data...
Loading historical data...
Loading historical data...
Loading historical data...
Loading historical data...
Loading historical data...

Documentation

Showing up to 5 results
|